Hourly Data Report for August 16, 2021

ALGONQUIN PARK EAST GATE
ONTARIO
Current Station Operator: ECCC - MSC

45°32'00.000" N
78°16'00.000" W
397.00 m
6080192
71581
TNK

Download Data

Hourly Data (August 2021)
Hourly Data Report for August 16, 2021
TIME
LST
Temp Definition
°C
Dew Point Definition
°C
Rel Hum Definition
%
Precip. Amount Definition
mm

Wind Dir Definition
10's deg

Wind Spd Definition
km/h
Visibility Definition
km
Stn Press Definition
kPa
Hmdx Definition


Wind Chill Definition


Weather Definition


00:00 9.4 8.8 96 0.0   0   97.61     LegendNANA
01:00 8.6 8.1 97 0.0   0   97.62     LegendNANA
02:00 8.0 7.5 97 0.0   0   97.58     LegendNANA
03:00 7.6 7.2 97 0.0   0   97.60     LegendNANA
04:00 7.6 7.3 98 0.0   0   97.63     LegendNANA
05:00 7.4 7.2 98 0.0   0   97.65     LegendNANA
06:00 7.3 6.9 98 0.0   0   97.66     LegendNANA
07:00 10.3 9.9 97 0.0   0   97.67     LegendNANA
08:00 15.5 13.0 85 0.0 23 2   97.68     LegendNANA
09:00 18.7 11.8 64 0.0 24 2   97.66     LegendNANA
10:00 20.9 12.1 57 0.0 18 5   97.67     LegendNANA
11:00 21.8 10.2 48 0.0 23 3   97.62     LegendNANA
12:00 23.6 11.7 47 0.0 8 6   97.56 26   LegendNANA
13:00 23.9 10.6 43 0.0 16 5   97.52 25   LegendNANA
14:00 24.5 11.1 43 0.0 18 5   97.48 26   LegendNANA
15:00 24.7 11.2 43 0.0 16 6   97.42 27   LegendNANA
16:00 24.9 12.2 45 0.0 13 3   97.39 27   LegendNANA
17:00 24.3 12.6 48 0.0 15 5   97.35 27   LegendNANA
18:00 22.5 12.4 53 0.0 17 3   97.34 25   LegendNANA
19:00 18.2 13.3 73 0.0   0   97.31     LegendNANA
20:00 15.8 13.3 85 0.0   0   97.32     LegendNANA
21:00 14.0 12.6 91 0.0   0   97.34     LegendNANA
22:00 12.5 11.6 94 0.0   0   97.34     LegendNANA
23:00 11.4 10.7 96 0.0   0   97.36     LegendNANA

Notes on Data Quality.

Legend

  • E = Estimated
  • M = Missing
  • NA = Not Available*
  • [empty] = Indicates an unobserved value
Date modified: